Regional Weather Roundup
Issued by NWS

Home | Current Version | Previous Version | Text Only | Print | Product List | Glossary On
Versions: 1 2 3 4 5 6 7 8 9 10 11 12 13 14 15 16 17 18 19 20 21 22 23 24 25 26 27 28 29 30 31 32 33 34 35 36 37 38 39 40 41 42 43 44 45 46 47 48 49 50
000
ASUS43 KDMX 060007
RWRIA

WEATHER ROUNDUP FOR IOWA
NATIONAL WEATHER SERVICE DES MOINES IA
700 PM CDT SUN JUL 05 2015

NOTE: "FAIR" INDICATES FEW OR NO CLOUDS BELOW 12,000 FEET WITH NO
SIGNIFICANT WEATHER AND/OR OBSTRUCTIONS TO VISIBILITY.

* - THESE STATIONS ARE NOT NWS STATIONS...THUS NOT UNDER NWS
QUALITY CONTROL.  THEY ALSO DO NOT REPORT WEATHER SUCH
AS PRECIPITATION OR FOG.

IAZ001>003-012>014-020>022-031>034-043>046-060100-
   NORTHWEST IOWA

CITY           SKY/WX    TMP DP  RH WIND       PRES   REMARKS
CARROLL *      SUNNY     84  72  65 SE18      29.85S HX  89
CHEROKEE *     MOSUNNY   84  73  69 S15       29.82F HX  91
DENISON *      SUNNY     84  72  65 S14G23    29.82S HX  89
LE MARS *      PTSUNNY   84  73  70 S15G24    29.80F HX  91
ORANGE CITY *  SUNNY     84  72  65 S14G24    29.81F HX  89
SHELDON *      MOSUNNY   84  73  70 S15G26    29.80S HX  91
SIOUX CITY     PTSUNNY   88  74  63 SE12      29.78F HX  96
6HR MIN TEMP:  80; 6HR MAX TEMP:  88;

SPENCER        MOSUNNY   87  68  52 SE21G30   29.82F HX  90
6HR MIN TEMP:  84; 6HR MAX TEMP:  90;

STORM LAKE *   SUNNY     82  72  69 SE16G25   29.85S HX  87
$$

IAZ055>058-069>071-079>083-090>094-060100-
   SOUTHWEST IOWA

CITY           SKY/WX    TMP DP  RH WIND       PRES   REMARKS
ATLANTIC *     SUNNY     86  72  62 S15G23    29.84F HX  92
AUDUBON *      SUNNY     84  72  65 SE9G20    29.87S HX  89
CLARINDA *     SUNNY     86  86 100 S7        29.87S HX 112
COUNCIL BLFS * SUNNY     88  77  70 S15       29.82F HX 100
CRESTON *      SUNNY     84  72  65 SE16G23   29.89F HX  89
HARLAN  *      SUNNY     84  77  79 S10G20    29.88R HX  94
LAMONI         PTSUNNY   85  72  65 SE9       29.90F HX  91
6HR MIN TEMP:  84; 6HR MAX TEMP:  89;

RED OAK *      SUNNY     86  73  66 S17       29.84S HX  93
SHENANDOAH *   SUNNY     88  75  66 SE16      29.84S HX  97
$$

IAZ047>049-059>061-072>074-084-060100-
   CENTRAL IOWA

CITY           SKY/WX    TMP DP  RH WIND       PRES   REMARKS
AMES           SUNNY     82  69  64 SE13      29.89F HX  85
6HR MIN TEMP:  80; 6HR MAX TEMP:  84;

ANKENY *       SUNNY     82  72  69 SE15G21   29.89F HX  87
CHARITON *     SUNNY     82  70  65 SE13G20   29.92F HX  86
DES MOINES     MOSUNNY   85  68  56 SE17G25   29.89F HX  88
6HR MIN TEMP:  82; 6HR MAX TEMP:  89;

GRINNELL*      MOSUNNY   82  68  62 SE10      29.94S HX  84
KNOXVILLE *    SUNNY     82  68  61 SE12      29.90F HX  85
MARSHALLTOWN   SUNNY     82  67  60 SE16      29.91F HX  84
6HR MIN TEMP:  80; 6HR MAX TEMP:  83;

PELLA *        PTSUNNY   83  70  64 S8        29.93S HX  88
PERRY *          N/A     84  70  61 SE13G21   29.87F HX  88
$$

IAZ004>006-015-016-023>025-035-036-060100-
   NORTH CENTRAL IOWA

CITY           SKY/WX    TMP DP  RH WIND       PRES   REMARKS
ALGONA *       SUNNY     84  72  65 S14G21    29.86F HX  89
CLARION *      SUNNY     82  70  65 S18       29.88F HX  86
ESTHERVILLE    MOSUNNY   83  71  67 S13G21    29.84F HX  87
6HR MIN TEMP:  78; 6HR MAX TEMP:  86;

FORT DODGE *   SUNNY     84  68  58 S12G22    29.87F HX  87
MASON CITY     MOSUNNY   82  68  62 S16       29.90F HX  85
6HR MIN TEMP:  81; 6HR MAX TEMP:  86;

FOREST CITY *  SUNNY     79  66  65 S15       29.88F HX  81
IOWA FALLS *     N/A     81  68  65 SE14      29.91F HX  83
$$

IAZ007>011-017>019-026>030-037>042-050>054-066-060100-
   NORTHEAST IOWA

CITY           SKY/WX    TMP DP  RH WIND       PRES   REMARKS
CEDAR RAPIDS   MOSUNNY   81  69  67 S8        29.94F HX  84
6HR MIN TEMP:  79; 6HR MAX TEMP:  83;

CHARLES CITY * SUNNY     81  70  69 S10G17    29.93F HX  84
CLINTON *      MOSUNNY   77  64  65 S7        30.01F
DECORAH *        N/A    N/A N/A N/A MISG        N/A
DUBUQUE        PTSUNNY   78  65  63 S12       29.98F HX  80
6HR MIN TEMP:  78; 6HR MAX TEMP:  81;

MONTICELLO *   SUNNY     81  68  65 SE13      29.96F HX  83
OELWEIN *      SUNNY     81  68  65 S10G17    29.95F HX  83
WATERLOO       SUNNY     82  67  60 S12       29.91F HX  84
6HR MIN TEMP:  81; 6HR MAX TEMP:  85;

$$

IAZ064-065-067-068-078-060100-
   EAST CENTRAL IOWA

CITY           SKY/WX    TMP DP  RH WIND       PRES   REMARKS
DAVENPORT      PTSUNNY   79  65  62 SE14      29.99F HX  81
6HR MIN TEMP:  79; 6HR MAX TEMP:  82;

IOWA CITY      MOSUNNY   82  70  66 SE9       29.96S HX  86
6HR MIN TEMP:  80; 6HR MAX TEMP:  84;

MT. PLEASANT * MOSUNNY   84  65  52 SE8       29.96F HX  85
MUSCATINE *    MOSUNNY   82  70  65 SE9G15    29.96F HX  86
QUAD CITIES    PTSUNNY   80  67  64 SE10      29.98F HX  82
6HR MIN TEMP:  79; 6HR MAX TEMP:  83;

$$

IAZ062-063-075>077-085>089-095>099-060100-
   SOUTHEAST IOWA

CITY           SKY/WX    TMP DP  RH WIND       PRES   REMARKS
BURLINGTON     PTSUNNY   81  71  71 S12       29.97F HX  85
6HR MIN TEMP:  81; 6HR MAX TEMP:  85;

FAIRFIELD *    SUNNY     82  70  65 SE14      29.95S HX  86
FORT MADISON * SUNNY     82  72  69 S3        29.98S HX  87
KEOKUK *       SUNNY     82  70  65 SE7       29.96F HX  86
OSKALOOSA *      N/A     82  68  63 S6        29.94S HX  84
CENTERVILLE *  SUNNY     81  66  61 SE8       29.95F HX  83
OTTUMWA        MOSUNNY   82  68  62 S10       29.92F HX  85
6HR MIN TEMP:  81; 6HR MAX TEMP:  85;

WASHINGTON *   SUNNY     81  72  74 SE7       29.96F HX  84
$$

ABBREVIATIONS USED IN REMARKS
   TC - TEMPERATURES IN CELSIUS
  WCI - WIND CHILL INDEX
   HX - HEAT INDEX
  VSB - VISIBILITY
$$



USA.gov is the U.S. government's official web portal to all federal, state and local government web resources and services.